www.pogodaiklimat.ru

ПОГОДА в Поплар Блафф, MO

  • Прогноз погоды в Поплар Блафф
  • Монитор погоды в Поплар Блафф
  • Климат в Поплар Блафф

АРХИВ ПОГОДЫ в Поплар Блафф

Время (UTC), дата Ветер
(напр.,м/с)
 
Видим.   Явления Облачность Т
(С)
Тd
(С)
f
(%)
Тe
(С)
Тes
(С)
Комфортность

P
(гПа)

Po
(гПа)
Тmin
(С)
Tmax
(С)
R
(мм)
SD
(см)
20:53 23.06 Ю  16 км  слабый дождь  5/0 3600 м
[средняя] 
+21.1  +20.0  93  +26  +31  душно  1009.7  998.1         
21:53 23.06 ЮЗ  16 км    ясно  +21.1  +20.0  93  +26  +31  душно  1007.8  996.1         
22:53 23.06 ЮЗ  7
{11} 
16 км    ясно  +21.1  +20.0  93  +26  +27  душно  1007.4  995.8  +20.6  +30.0  10.9   
23:53 23.06 ЮЗ  6
{11} 
16 км  слабый дождь  5/0 2700 м
[средняя] 
+21.7  +20.0  90  +27  +27  душно  1007.5  995.8         
00:53 24.06 ЮЗ  16 км  слабый дождь  5/0 3600 м
[средняя] 
+21.7  +20.0  90  +27  +27  душно  1008.7  997.1         
01:53 24.06 ЮЗ  16 км    ясно  +21.1  +20.0  93  +26  +26  душно  1009.9  998.5         
02:53 24.06 ЮЗ  16 км    ясно  +21.1  +19.4  90  +26  +26  душно  1010.2  998.5         
03:53 24.06 Ю  6
{8} 
16 км    ясно  +21.7  +18.9  84  +27  +27  душно  1008.7  997.1         
04:53 24.06 ЮЗ  4
{9} 
16 км    2/0 3000 м
[средняя] 
+21.7  +18.9  84  +27  +27  душно  1008.4  996.8  +21.1  +21.7     
05:53 24.06 З  16 км    5/0 3600 м
[средняя] 
+21.7  +17.2  76  +26  +26  душно  1008.4  996.8         
06:53 24.06 З  16 км    8/0 3000 м
[средняя] 
+21.1  +17.2  78  +25  +25  комфорт  1008.1  996.4         
07:53 24.06 ЮЗ  8 км  дождь, дымка  10/10 1170 м  +19.4  +18.3  93  +21  +21  комфорт  1009.0  997.5      1.5   
08:53 24.06 В  16 км  слабый дождь  10/10 1800 м  +18.9  +18.9  100  +21  +21  комфорт  1007.9  996.1         
09:53 24.06 В  16 км    8/0 2700 м
[средняя] 
+18.9  +18.9  100  +20  +20    1006.5  994.8         
10:53 24.06 З  4
{11} 
16 км    2/2 360 м  +18.9  +18.9  100  +20  +20    1009.4  997.8  +18.9  +22.2  3.8   
11:53 24.06 З  16 км    ясно  +21.1  +18.9  87  +25  +26  комфорт  1009.3  997.8         
12:53 24.06 ЮЗ  16 км    ясно  +22.2  +20.0  87  +28  +30  душно  1009.1  997.5         
13:53 24.06 ЮЗ  16 км    ясно  +23.9  +20.0  79  +29  +32  душно  1009.0  997.5         
14:53 24.06 ЮЗ  16 км    2/2 990 м  +25.6  +20.0  71  +31  +34  очень
душно 
1009.1  997.5         
15:53 24.06 ЮЗ  16 км    ясно  +26.7  +18.9  62  +32  +37  очень
душно 
1009.2  997.8         
16:53 24.06 З  16 км    8/8 1260 м  +27.2  +19.4  62  +33  +35  очень
душно 
1009.5  998.1  +18.9  +27.2     
17:53 24.06 З  16 км    5/5 1170 м  +27.2  +20.0  65  +33  +39  очень
душно 
1009.4  997.8         
18:53 24.06 З  16 км    2/2 1800 м  +27.8  +20.0  63  +34  +42  очень
душно 
1009.4  997.8         
19:53 24.06 З  16 км    8/8 1320 м  +27.8  +19.4  60  +33  +35  очень
душно 
1009.6  998.1         
20:53 24.06 ЮЗ  16 км    5/5 1350 м  +27.8  +19.4  60  +33  +35  очень
душно 
1009.6  998.1         
21:53 24.06 ЮЗ  16 км    ясно  +27.2  +20.0  65  +33  +39  очень
душно 
1009.7  998.1         
22:53 24.06 ЮЗ  16 км    2/2 1320 м  +26.7  +20.6  69  +33  +35  очень
душно 
1010.0  998.5  +26.1  +28.9     
23:53 24.06 ЮЗ  16 км    ясно  +25.6  +21.1  76  +32  +33  очень
душно 
1010.3  998.8         
00:53 25.06 ЮЗ  16 км    ясно  +23.9  +21.7  88  +31  +31  очень
душно 
1010.8  999.5         
01:53 25.06 ЮЗ  16 км    ясно  +23.3  +20.6  85  +31  +31  очень
душно 
1011.7  1000.1         
02:53 25.06   16 км    ясно  +21.7  +20.6  93  +27  +27  душно  1012.2  1000.8         
03:53 25.06   16 км    ясно  +21.1  +20.6  97  +26  +26  душно  1012.5  1000.8         
04:53 25.06   16 км    ясно  +20.0  +19.4  96  +23  +23  комфорт  1012.7  1001.1  +20.0  +26.7     
05:53 25.06   16 км    ясно  +19.4  +19.4  100  +22  +22  комфорт  1013.0  1001.5         
06:53 25.06 Ю  16 км    ясно  +18.3  +18.3  100  +19  +19    1013.6  1002.1         
07:53 25.06   16 км    ясно  +18.3  +18.3  100  +19  +19    1014.1  1002.5         
08:53 25.06   16 км    ясно  +17.8  +17.8  100  +18  +18    1014.6  1002.8         
09:53 25.06   16 км    ясно  +17.2  +17.2  100  +17  +17    1015.4  1003.8         
10:53 25.06   16 км    ясно  +18.9  +17.8  93  +20  +20    1016.1  1004.5  +17.2  +20.0     
11:53 25.06   16 км    ясно  +21.1  +18.3  84  +25  +27  комфорт  1016.2  1004.8         
12:53 25.06 Ю  16 км    ясно  +23.9  +18.9  74  +29  +32  душно  1016.8  1005.1         
13:53 25.06 нст  16 км    ясно  +25.6  +18.9  66  +31  +39  очень
душно 
1016.9  1005.1         
14:53 25.06 нст  16 км    ясно  +26.7  +18.3  60  +31  +43  душно  1017.3  1005.8         
15:53 25.06 ЮЗ  16 км    ясно  +27.8  +18.9  58  +33  +45  очень
душно 
1017.3  1005.8         
16:53 25.06 ЮЗ  16 км    ясно  +27.8  +19.4  60  +33  +48  очень
душно 
1017.0  1005.5  +18.9  +28.3     
17:53 25.06 ЮЗ  13 км    ясно  +28.9  +20.0  59  +35  +47  очень
душно 
1016.7  1005.1         
18:53 25.06 Ю  16 км    ясно  +28.9  +20.6  61  +36  +47  очень
душно 
1016.5  1004.8         
19:53 25.06 ЮЗ  16 км    ясно  +29.4  +21.1  61  +37  +48  очень
душно 
1016.2  1004.8         

 

Местоположение метеостанции Poplar Bluff Municipal Airport: широта 36.7706 долгота -90.3222 высота над уровнем моря 100 м.

В архиве по умолчанию представлена погода в Поплар Блафф за последние 1-2 суток. Обновление информации о фактической погоде в базе происходит ежечасно! Архивные данные за месяц целиком и за предыдущие месяцы Вы можете получить, выбрав интересующий диапазон дат из раскрывающегося списка и нажав кнопку "Ввод!".

Внимание! Архив погоды МЕТАР в базе сайта хранится не более 60 дней. Нет смысла пытаться выбрать более раннюю дату.

Внимание! Время в таблицах - всемирное. Для получения местного времени необходимо прибавить поправку, которая в Поплар Блафф равна -6 ч.

Ветер - указаны скорость ветра в м/с и направление, откуда дует ветер: С - северный, СВ - северо-восточный, В - восточный, ЮВ - юго-восточный, Ю - южный, ЮЗ - юго-западный, З - западный, СЗ - северо-западный.
Видимость - горизонтальная дальность видимости в метрах или километрах. При видимости от 1 до 10 км при отсутствии осадков обычно наблюдается дымка, при ухудшении видимости до 1 км и менее - туман. В сухую погоду видимость может ухудшаться дымом, пылью или мглою.
Атмосферные явления - указаны явления, наблюдавшиеся в указанный момент времени.
Облачность - указаны через наклонную черту верхняя и нижняя облачность в баллах и высота нижней границы облаков в метрах. Внимание: облачность, как и прочие метеорологические величины в США измеряются автоматическими метеостанциями. Указанные значения в баллах носят условный характер и показывают процент времени, в течение которого, в среднем, лазерный луч высотомера отражался от облаков обратно.
T - Температура воздуха - температура, измеренная на высоте 2 м над землей.
Td - Температура точки росы - температура, при понижении до которой содержащийся в воздухе водяной пар достигнет насыщения.
f - Относительная влажность воздуха - влажноcть воздуха, измеренная на высоте 2 м над землей.
Te - Эффективная температура - температура, которую ощущает одетый по сезону человек в тени. Характеристика душности погоды. При расчете учитывается влияние влажности воздуха и скорости ветра на теплоощущения человека.
Tes - Эффективная температура на солнце - температура, которую ощущает человек, с поправкой на солнечный нагрев. Характеристика знойности погоды. Зависит от высоты солнца над горизонтом, облачности и скорости ветра. Ночью, в пасмурную погоду, а также при ветре 12 м/с и более поправка равна нулю.
P - Атмосферное давление - приведенное к уровню моря атмосферное давление.
Po - Атмосферное давление - измеренное на уровне метеостанции атмосферное давление.
Tmin - Минимальная температура - минимум температуры воздуха на высоте 2 м над землей.
Tmax - Максимальная температура - максимум температуры воздуха на высоте 2 м над землей.
R - Количество осадков - Количество выпавших осадков за 3 или 6 часов, мм.
SD - Снежный покров - Высота снежного покрова, см.